Regional Weather Roundup
Issued by NWS

Home | Current Version | Previous Version | Text Only | Print | Product List | Glossary On
Versions: 1 2 3 4 5 6 7 8 9 10 11 12 13 14 15 16 17 18 19 20 21 22 23 24 25 26 27 28 29 30 31 32 33 34 35 36 37 38 39 40 41 42 43 44 45 46 47 48 49 50
000
ASUS44 KJAN 231010
RWRMS

MISSISSIPPI HOURLY WEATHER ROUNDUP
NATIONAL WEATHER SERVICE JACKSON MS
500 AM CDT WED APR 23 2014

NOTE: "FAIR: INDICATES FEW OR NO CLOUDS BELOW 12,000 FEET WITH NO
SIGNIFICANT WEATHER AND/OR OBSTRUCTIONS TO VISIBILITY.

MSZ001>002-007>008-010>013-018>021-025>028-034>036-231100-
NORTHWEST MISSISSIPPI

CITY           SKY/WX    TMP DP  RH WIND       PRES   REMARKS
CLARKSDALE       N/A     54  46  76 CALM      30.00R
CLEVELAND      FAIR      53  49  86 NE5       29.97R
GREENWOOD      CLEAR     50  49  96 NE3       29.97R
GREENVILLE     CLEAR     53  50  89 CALM      29.97R
GRENADA        FAIR      48  43  81 CALM      29.99R
OLIVE BRANCH   CLEAR     48  45  87 CALM      30.01R
OXFORD         FAIR      45  41  87 CALM      30.01R
TUNICA         SUNNY     50  45  81 CALM      30.01R
$$

MSZ003>006-009-014>017-022>024-029>033-037>039-231100-
NORTHEAST MISSISSIPPI

CITY           SKY/WX    TMP DP  RH WIND       PRES   REMARKS
BELMONT        FAIR      47  44  90 CALM      29.97S
COLUMBUS AFB   CLEAR     55  48  77 N6        29.96R
CORINTH        FAIR      46  45  93 CALM      29.99S
GOLDN TRIANGLE CLEAR     54  46  76 N6        29.98R
STARKVILLE     FAIR      52  50  93 CALM      29.96R
TUPELO         CLEAR     51  42  71 NE5       29.97R
$$

MSZ040-058-231100-
CENTRAL MISSISSIPPI

CITY           SKY/WX    TMP DP  RH WIND       PRES   REMARKS
JACKSON INTL   PTCLDY    55  54  94 CALM      29.96S FOG
JACKSON HAWKNS CLEAR     59  56  89 CALM      29.97R FOG
MERIDIAN KEY   PTCLDY    53  52  96 CALM      29.95R FOG
MERIDIAN NAS   PTCLDY    55  53  93 W5        29.95R
RAYMOND        HAZE      52  46  82 CALM      29.98R VSB<1/4
VICKSBURG      FOG       57  55  93 CALM      29.97R VSB 1/4
$$

MSZ059>079-231100-
SOUTH MISSISSIPPI

CITY           SKY/WX    TMP DP  RH WIND       PRES   REMARKS
BROOKHAVEN     FAIR      55  55 100 CALM      29.97S FOG
HATTIESBURG    CLEAR     56  54  93 CALM      29.95R
MCCOMB         CLEAR     62  59  90 N6        29.95S
NATCHEZ        CLEAR     54  52  94 CALM      29.95S
PINE BELT      CLEAR     63  57  82 N6        29.95R
$$

MSZ080>082-231100-
COASTAL MISSISSIPPI

CITY           SKY/WX    TMP DP  RH WIND       PRES   REMARKS
BILOXI         CLEAR     63  63 100 N1        29.92S
PASCAGOULA     FOG       60  59  96 CALM      29.92S VSB 1/4
GULFPORT       CLEAR     61  58  90 CALM      29.92S FOG
$$



USA.gov is the U.S. government's official web portal to all federal, state and local government web resources and services.